TimeEST,TemperatureF,Dew PointF,Humidity,Sea Level PressureIn,VisibilityMPH,Wind Direction,Wind SpeedMPH,Gust SpeedMPH,PrecipitationIn,Events,Conditions,WindDirDegrees,DateUTC
12:53 AM,21.9,8.1,55,30.34,10.0,SSW,13.8,21.9,N/A,,Clear,200,2013-11-25 05:53:00
1:53 AM,21.9,7.0,53,30.30,10.0,SSW,16.1,-,N/A,,Clear,200,2013-11-25 06:53:00
2:53 AM,21.9,3.9,46,30.29,10.0,SSW,19.6,28.8,N/A,,Clear,210,2013-11-25 07:53:00
3:53 AM,21.9,3.0,44,30.26,10.0,SW,17.3,27.6,N/A,,Clear,220,2013-11-25 08:53:00
4:53 AM,23.0,3.0,42,30.25,10.0,SSW,16.1,24.2,N/A,,Clear,210,2013-11-25 09:53:00
5:53 AM,23.0,3.0,42,30.21,10.0,SSW,18.4,24.2,N/A,,Clear,200,2013-11-25 10:53:00
6:53 AM,23.0,1.0,39,30.19,10.0,SSW,16.1,25.3,N/A,,Clear,200,2013-11-25 11:53:00
7:53 AM,24.1,1.0,37,30.17,10.0,SSW,17.3,26.5,N/A,,Clear,210,2013-11-25 12:53:00
8:53 AM,26.1,3.0,37,30.15,10.0,SSW,18.4,27.6,N/A,,Clear,210,2013-11-25 13:53:00
9:53 AM,28.0,5.0,38,30.14,10.0,SW,23.0,28.8,N/A,,Overcast,220,2013-11-25 14:53:00
10:53 AM,27.0,14.0,58,30.13,3.0,SW,27.6,35.7,0.00,Snow,Light Snow,220,2013-11-25 15:53:00
10:58 AM,26.6,15.8,64,30.11,1.5,SW,27.6,36.8,0.00,Snow,Light Snow,220,2013-11-25 15:58:00
11:18 AM,24.8,19.4,80,30.10,0.5,SW,19.6,34.5,0.00,Snow,Light Snow,220,2013-11-25 16:18:00
11:34 AM,24.8,21.2,86,30.08,0.5,SSW,19.6,27.6,0.00,Snow,Light Snow,210,2013-11-25 16:34:00
11:42 AM,24.8,21.2,86,30.07,0.5,SSW,20.7,28.8,0.00,Snow,Light Snow,210,2013-11-25 16:42:00
11:53 AM,26.1,19.9,78,30.10,0.5,SSW,20.7,29.9,0.00,Snow,Light Snow,210,2013-11-25 16:53:00
12:00 PM,26.6,19.4,74,30.06,2.5,SSW,17.3,31.1,0.00,Snow,Light Snow,210,2013-11-25 17:00:00
12:27 PM,26.6,19.4,74,30.03,10.0,SSW,21.9,29.9,0.00,,Overcast,200,2013-11-25 17:27:00
12:53 PM,28.0,19.9,72,30.06,10.0,SW,20.7,28.8,0.00,,Overcast,220,2013-11-25 17:53:00
1:53 PM,30.9,14.0,50,30.02,10.0,SW,21.9,28.8,N/A,,Overcast,220,2013-11-25 18:53:00
2:53 PM,33.1,14.0,46,30.01,10.0,SW,21.9,29.9,N/A,,Mostly Cloudy,230,2013-11-25 19:53:00
3:53 PM,32.0,19.0,59,30.02,10.0,SW,21.9,33.4,N/A,,Overcast,230,2013-11-25 20:53:00
4:10 PM,32.0,19.4,60,29.99,10.0,WSW,21.9,35.7,N/A,,Overcast,240,2013-11-25 21:10:00
4:53 PM,30.9,19.9,64,30.03,10.0,SW,19.6,26.5,N/A,,Overcast,220,2013-11-25 21:53:00
5:53 PM,30.0,21.0,69,30.02,10.0,SW,21.9,31.1,N/A,,Overcast,230,2013-11-25 22:53:00
6:53 PM,30.0,23.0,75,30.05,10.0,SW,17.3,26.5,N/A,,Overcast,230,2013-11-25 23:53:00
7:53 PM,30.0,25.0,82,30.06,6.0,SW,17.3,-,N/A,,Haze,230,2013-11-26 00:53:00
8:00 PM,30.2,26.6,86,30.04,6.0,SW,15.0,-,N/A,,Overcast,230,2013-11-26 01:00:00
8:33 PM,30.2,26.6,86,30.04,2.0,SW,13.8,-,N/A,,Overcast,230,2013-11-26 01:33:00
8:53 PM,30.0,27.0,88,30.06,2.0,SW,12.7,-,N/A,,Overcast,220,2013-11-26 01:53:00
9:53 PM,30.0,28.0,92,30.06,6.0,SW,10.4,-,N/A,,Overcast,220,2013-11-26 02:53:00
10:53 PM,30.0,28.0,92,30.06,6.0,SSW,10.4,-,N/A,,Overcast,210,2013-11-26 03:53:00
11:53 PM,30.9,28.9,92,30.06,4.0,SSW,13.8,18.4,0.00,Rain,Light Freezing Rain,210,2013-11-26 04:53:00